Home   Weather   Wedel   Past weeks

Flag for Germany Past Weather in Wedel, Schleswig-Holstein, Germany — Yesterday and Last 2 Weeks

Now
36 °F

Passing clouds.


Feels Like: 36 °F
Forecast: 25 / 30 °F
Wind: 2 mph from North

Location: Hamburg-Finkenwerder

Current Time: Jan 21, 2017 at 8:58:49 pm

Latest Report: Jan 21, 2017 at 6:20 pm


Visibility: 4 mi

Pressure: 30.45 "Hg

Humidity: 93%

Dew Point: 34 °F

Location of WedelLocation

Past Weather in Wedel — Graph

°F

Wedel Temperature Yesterday

Maximum temperature yesterday: 34 °F (at 12:50 pm)
Minimum temperature yesterday: 32 °F (at 5:50 am)
Average temperature yesterday: 33 °F

High & Low Weather Summary for the Past Weeks

 TemperatureHumidityPressure
High43 °F (Jan 11, 1:50 pm)100% (Jan 7, 10:50 am)30.74 "Hg (Jan 7, 10:50 am)
Low19 °F (Jan 16, 7:20 am)68% (Jan 6, 8:50 pm)29.06 "Hg (Jan 13, 6:20 am)
Average33 °F88%30.15 "Hg
* Reported Jan 6 6:20 pm — Jan 21 6:20 pm, Wedel, Weather by CustomWeather, © 2017

Note: Actual official high and low records may vary slightly from our data, if they occured in-between our weather recording intervals... More about our weather records

Advertising

Wedel Weather History for the Previous 24 Hours

Scroll right to see more
 ConditionsComfort  
Time TempWeatherWind HumidityBarometerVisibility
6:20 pm
Sat, Jan 21
36 °FPassing clouds.2 mph93%30.45 "Hg4 mi
5:50 pm36 °FPassing clouds.1 mph93%30.45 "Hg4 mi
5:20 pm36 °FPassing clouds.2 mph93%30.45 "Hg5 mi
4:50 pm36 °FPassing clouds.2 mph93%30.45 "Hg4 mi
4:20 pm37 °FPartly sunny.2 mph93%30.45 "Hg4 mi
3:50 pm37 °FPartly sunny.2 mph93%30.45 "Hg4 mi
3:20 pm37 °FPartly sunny.5 mph93%30.45 "Hg4 mi
2:50 pm37 °FPartly sunny.2 mph93%30.45 "Hg4 mi
2:20 pm37 °FPartly sunny.3 mph93%30.45 "Hg4 mi
1:50 pm37 °FFog.5 mph93%30.48 "Hg3 mi
1:20 pm37 °FFog.5 mph93%30.48 "Hg3 mi
12:50 pm36 °FFog.6 mph100%30.48 "Hg2 mi
12:20 pm36 °FFog.7 mph100%30.48 "Hg2 mi
11:50 am36 °FFog.5 mph93%30.48 "Hg2 mi
11:20 am36 °FFog.5 mph93%30.51 "Hg2 mi
10:50 am36 °FFog.6 mph93%30.51 "Hg2 mi
10:20 am34 °FFog.3 mph100%30.51 "Hg2 mi
9:50 am34 °FFog.3 mph100%30.51 "Hg2 mi
9:20 am34 °FFog.2 mph100%30.51 "Hg2 mi
9:20 pm
Fri, Jan 20
32 °FIce fog.5 mph100%30.54 "Hg1 mi
8:50 pm32 °FIce fog.5 mph100%30.54 "Hg1 mi
8:20 pm32 °FIce fog.5 mph100%30.54 "Hg1 mi
Weather by CustomWeather, © 2017

See weather overviewHow to use our weather pages